Weather History for Winchester, TN

Change the Weather History Date:

Monday, July 15, 2013

  Actual Average (KTHA) Record (KTHA)
Temperature  
Mean Temperature 78 °F -  
Max Temperature 86 °F 88 °F 87 °F (2013)
Min Temperature 71 °F 67 °F 73 °F (2013)
Cooling Degree Days 14    
Growing Degree Days 28 (Base 50)    
Moisture  
Dew Point 69 °F    
Average Humidity 77    
Maximum Humidity 94    
Minimum Humidity 55    
Precipitation  
Precipitation 0.00 in - - ()
Sea Level Pressure  
Sea Level Pressure 30.25 in    
Wind  
Wind Speed 9 mph (ESE)    
Max Wind Speed 15 mph    
Max Gust Speed -    
Visibility 10 miles    
Events      
Averages and records for this station are not official NWS values.
T = Trace of Precipitation, MM = Missing Value Source: NWS Daily Summary

Daily Weather History Graph

Daily Weather History Graph

Search for Another Location

Airport:

Trip Planner

Search our weather history database for the weather conditions in past years. The results will help you decide how hot, cold, wet, or windy it might be!

Date:

Astronomy

Jul. 15, 2013 Rise Set
Actual Time 6:41 AM EDT 8:58 PM EDT
Civil Twilight 6:12 AM EDT 9:27 PM EDT
Nautical Twilight 5:36 AM EDT 10:03 PM EDT
Astronomical Twilight 4:57 AM EDT 10:42 PM EDT
Moon 1:41 PM EDT (7/15) 12:28 AM EDT (7/15)
Length of Visible Light 15h 15m
Length of Day
14h 17m
Waxing Crescent, 45% of the Moon is Illuminated
Jul 15
Waxing Crescent
Jul 15
First Quarter
Jul 22
Full
Jul 29
Last Quarter
Aug 6
New

Hourly Weather History & Observations

Time (EDT) Temp. Heat Index Dew Point Humidity Pressure Visibility Wind Dir Wind Speed Gust Speed Precip Events Conditions
12:15 AM 75.2 °F - 69.8 °F 83% 30.19 in 10.0 mi ESE 8.1 mph - N/A   Overcast
12:35 AM 75.2 °F - 69.8 °F 83% 30.20 in 10.0 mi ESE 9.2 mph - N/A   Mostly Cloudy
12:55 AM 75.2 °F - 69.8 °F 83% 30.20 in 10.0 mi ESE 9.2 mph - N/A   Mostly Cloudy
1:35 AM 75.2 °F - 69.8 °F 83% 30.21 in 10.0 mi ESE 11.5 mph - N/A   Overcast
1:55 AM 73.4 °F - 69.8 °F 88% 30.21 in 10.0 mi SE 8.1 mph - N/A   Overcast
2:15 AM 73.4 °F - 69.8 °F 88% 30.21 in 10.0 mi ESE 5.8 mph - N/A   Overcast
2:35 AM 73.4 °F - 69.8 °F 88% 30.20 in 8.0 mi ESE 10.4 mph - N/A   Overcast
2:55 AM 71.6 °F - 69.8 °F 94% 30.21 in 5.0 mi ESE 12.7 mph - N/A   Mostly Cloudy
3:15 AM 71.6 °F - 69.8 °F 94% 30.21 in 5.0 mi ESE 10.4 mph - N/A   Overcast
3:35 AM 71.6 °F - 69.8 °F 94% 30.21 in 10.0 mi ESE 8.1 mph - N/A   Mostly Cloudy
3:55 AM 71.6 °F - 69.8 °F 94% 30.20 in 10.0 mi ESE 13.8 mph - N/A   Mostly Cloudy
4:15 AM 71.6 °F - 69.8 °F 94% 30.21 in 10.0 mi ESE 10.4 mph - N/A   Scattered Clouds
4:35 AM 71.6 °F - 69.8 °F 94% 30.21 in 10.0 mi ESE 9.2 mph - N/A   Partly Cloudy
4:55 AM 71.6 °F - 69.8 °F 94% 30.21 in 10.0 mi ESE 8.1 mph - N/A   Mostly Cloudy
5:15 AM 71.6 °F - 69.8 °F 94% 30.22 in 10.0 mi ESE 9.2 mph - N/A   Mostly Cloudy
5:35 AM 71.6 °F - 69.8 °F 94% 30.23 in 10.0 mi SE 4.6 mph - N/A   Scattered Clouds
5:55 AM 71.6 °F - 68.0 °F 88% 30.23 in 10.0 mi ESE 6.9 mph - N/A   Mostly Cloudy
6:15 AM 71.6 °F - 68.0 °F 88% 30.24 in 10.0 mi ESE 6.9 mph - N/A   Partly Cloudy
6:35 AM 71.6 °F - 68.0 °F 88% 30.24 in 10.0 mi ESE 8.1 mph - N/A   Scattered Clouds
6:55 AM 71.6 °F - 68.0 °F 88% 30.25 in 10.0 mi SE 5.8 mph - N/A   Overcast
7:15 AM 73.4 °F - 68.0 °F 83% 30.25 in 10.0 mi SSE 8.1 mph - N/A   Overcast
7:35 AM 73.4 °F - 68.0 °F 83% 30.26 in 10.0 mi SE 8.1 mph - N/A   Mostly Cloudy
7:55 AM 73.4 °F - 68.0 °F 83% 30.26 in 10.0 mi SE 9.2 mph - N/A   Partly Cloudy
8:15 AM 73.4 °F - 69.8 °F 88% 30.27 in 10.0 mi SE 10.4 mph - N/A   Partly Cloudy
8:35 AM 75.2 °F - 69.8 °F 83% 30.27 in 10.0 mi SE 11.5 mph - N/A   Clear
8:55 AM 75.2 °F - 69.8 °F 83% 30.28 in 10.0 mi SE 9.2 mph - N/A   Scattered Clouds
9:15 AM 77.0 °F - 69.8 °F 78% 30.29 in 10.0 mi SE 10.4 mph - N/A   Mostly Cloudy
9:35 AM 77.0 °F - 68.0 °F 74% 30.29 in 10.0 mi SSE 13.8 mph - N/A   Mostly Cloudy
9:55 AM 78.8 °F - 68.0 °F 69% 30.29 in 10.0 mi SSE 13.8 mph - N/A   Overcast
10:15 AM 78.8 °F - 68.0 °F 69% 30.30 in 10.0 mi SE 10.4 mph - N/A   Overcast
10:35 AM 77.0 °F - 68.0 °F 74% 30.30 in 10.0 mi SSE 6.9 mph - N/A   Overcast
10:55 AM 78.8 °F - 69.8 °F 74% 30.30 in 10.0 mi SSE 8.1 mph - N/A   Mostly Cloudy
11:15 AM 80.6 °F 83.9 °F 69.8 °F 70% 30.30 in 10.0 mi SE 9.2 mph - N/A   Scattered Clouds
11:35 AM 80.6 °F 83.2 °F 68.0 °F 65% 30.30 in 10.0 mi SSE 12.7 mph - N/A   Partly Cloudy
11:55 AM 80.6 °F 82.7 °F 66.2 °F 61% 30.30 in 10.0 mi SE 15.0 mph - N/A   Mostly Cloudy
12:15 PM 82.4 °F 85.4 °F 68.0 °F 62% 30.30 in 10.0 mi SE 10.4 mph - N/A   Scattered Clouds
12:35 PM 80.6 °F 83.2 °F 68.0 °F 65% 30.30 in 10.0 mi ESE 12.7 mph - N/A   Mostly Cloudy
12:55 PM 82.4 °F 85.4 °F 68.0 °F 62% 30.30 in 10.0 mi SE 12.7 mph - N/A   Mostly Cloudy
1:15 PM 82.4 °F 86.3 °F 69.8 °F 66% 30.29 in 10.0 mi SSE 10.4 mph - N/A   Scattered Clouds
1:35 PM 84.2 °F 87.3 °F 68.0 °F 58% 30.29 in 10.0 mi SSE 11.5 mph - N/A   Scattered Clouds
1:55 PM 84.2 °F 87.3 °F 68.0 °F 58% 30.28 in 10.0 mi SE 11.5 mph - N/A   Scattered Clouds
2:15 PM 84.2 °F 87.3 °F 68.0 °F 58% 30.28 in 10.0 mi SSE 11.5 mph - N/A   Partly Cloudy
2:35 PM 84.2 °F 88.4 °F 69.8 °F 62% 30.28 in 10.0 mi ESE 10.4 mph - N/A   Clear
2:55 PM 84.2 °F 88.4 °F 69.8 °F 62% 30.27 in 10.0 mi ESE 11.5 mph - N/A   Scattered Clouds
3:15 PM 84.2 °F 87.3 °F 68.0 °F 58% 30.26 in 10.0 mi SSE 6.9 mph - N/A   Partly Cloudy
3:35 PM 84.2 °F 88.4 °F 69.8 °F 62% 30.25 in 10.0 mi ESE 10.4 mph - N/A   Scattered Clouds
3:55 PM 84.2 °F 87.3 °F 68.0 °F 58% 30.25 in 10.0 mi ESE 11.5 mph - N/A   Scattered Clouds
4:15 PM 84.2 °F 88.4 °F 69.8 °F 62% 30.24 in 10.0 mi ESE 6.9 mph - N/A   Clear
4:35 PM 84.2 °F 87.3 °F 68.0 °F 58% 30.24 in 10.0 mi South 9.2 mph - N/A   Partly Cloudy
4:55 PM 86.0 °F 89.4 °F 68.0 °F 55% 30.23 in 10.0 mi ESE 9.2 mph - N/A   Clear
5:15 PM 86.0 °F 89.4 °F 68.0 °F 55% 30.23 in 10.0 mi SE 9.2 mph - N/A   Clear
5:35 PM 86.0 °F 89.4 °F 68.0 °F 55% 30.22 in 10.0 mi ESE 8.1 mph - N/A   Clear
5:55 PM 86.0 °F 89.4 °F 68.0 °F 55% 30.22 in 10.0 mi East 9.2 mph - N/A   Clear
6:15 PM 86.0 °F 89.4 °F 68.0 °F 55% 30.22 in 10.0 mi East 8.1 mph - N/A   Clear
6:35 PM 86.0 °F 89.4 °F 68.0 °F 55% 30.22 in 10.0 mi East 8.1 mph - N/A   Clear
6:55 PM 86.0 °F 89.4 °F 68.0 °F 55% 30.23 in 10.0 mi East 6.9 mph - N/A   Clear
7:15 PM 84.2 °F 87.3 °F 68.0 °F 58% 30.22 in 10.0 mi East 6.9 mph - N/A   Partly Cloudy
7:35 PM 86.0 °F 90.4 °F 69.8 °F 58% 30.23 in 10.0 mi ESE 9.2 mph - N/A   Scattered Clouds
7:55 PM 75.2 °F - 71.6 °F 89% 30.25 in 4.0 mi East 11.5 mph - N/A   Mostly Cloudy
8:15 PM 75.2 °F - 71.6 °F 89% 30.25 in 10.0 mi ENE 5.8 mph - N/A   Mostly Cloudy
8:35 PM 75.2 °F - 71.6 °F 89% 30.25 in 10.0 mi East 3.5 mph - N/A   Mostly Cloudy
8:55 PM 75.2 °F - 71.6 °F 89% 30.26 in 10.0 mi SE 3.5 mph - N/A   Mostly Cloudy
9:15 PM 73.4 °F - 71.6 °F 94% 30.26 in 10.0 mi East 4.6 mph - N/A   Scattered Clouds
9:35 PM 73.4 °F - 71.6 °F 94% 30.27 in 10.0 mi Calm Calm - N/A   Clear
9:55 PM 73.4 °F - 71.6 °F 94% 30.27 in 10.0 mi Calm Calm - N/A   Clear
10:15 PM 73.4 °F - 71.6 °F 94% 30.28 in 10.0 mi NE 3.5 mph - N/A   Clear
10:35 PM 73.4 °F - 71.6 °F 94% 30.29 in 10.0 mi East 3.5 mph - N/A   Clear
10:55 PM 73.4 °F - 69.8 °F 88% 30.29 in 10.0 mi ENE 3.5 mph - N/A   Clear
11:15 PM 73.4 °F - 69.8 °F 88% 30.29 in 10.0 mi Calm Calm - N/A   Clear
11:35 PM 71.6 °F - 69.8 °F 94% 30.30 in 10.0 mi NE 3.5 mph - N/A   Clear
11:55 PM 71.6 °F - 69.8 °F 94% 30.30 in 10.0 mi East 3.5 mph - N/A   Clear